Regional Weather Roundup
Issued by NWS Wakefield, VA

Home | Current Version | Previous Version | Graphics & Text | Print | Product List | Glossary On
Versions: 1 2 3 4 5 6 7 8 9 10 11 12 13 14 15 16 17 18 19 20 21 22 23 24 25 26 27 28
000
ASUS41 KAKQ 280915
RWRAKQ

REGIONAL WEATHER ROUNDUP
NATIONAL WEATHER SERVICE WAKEFIELD VA
500 AM EDT SAT MAY 28 2016

Note: "fair" indicates few or no clouds below 12,000 feet with no
significant weather and/or obstructions to visibility. * = Denotes
station may not report precipitation (e.g., rain,snow,etc.),
thunder or fog.

VAZ042-051-052>054-056-281000-
NORTHERN VIRGINIA

CITY           SKY/WX    TMP DP  RH WIND       PRES   REMARKS
WASH NATIONAL  FAIR      71  65  81 S7        30.11R
DULLES         FAIR      71  64  78 S7        30.10R
FORT BELVOIR   FAIR      69  62  79 SE2       30.11R
QUANTICO       FAIR      72  62  71 SW10      30.12R
FREDERICKSBRG* FAIR      68  62  79 S3        30.12R
STAFFORD*      FAIR      68  59  73 S3        30.16R
WARRENTON      FAIR      70  60  69 S5        30.11R
CULPEPER*      FAIR      71  65  83 S3        30.12R
MANASSAS*      FAIR      70  64  83 CALM      30.10S
LEESBURG*      FAIR      72  70  94 S3        30.11R
WINCHESTER     FAIR      66  63  88 SW5       30.11R
FRONT ROYAL*   FAIR      64  64 100 S5        30.10R
LURAY*         FAIR      64  64 100 CALM      30.13R FOG
$$

VAZ048-049-060>072-079>083-281000-
CENTRAL AND SOUTH CENTRAL VIRGINIA

CITY           SKY/WX    TMP DP  RH WIND       PRES   REMARKS
RICHMOND       FAIR      65  60  84 S3        30.14S
CHESTERFIELD*  FAIR      64  50  59 S3        30.16R
PETERSBURG*    FAIR      63  63 100 CALM      30.16R
HANOVER        FAIR      67  58  72 S6        30.16R
TAPPAHANNOCK*  FAIR      66  59  78 S3        30.15R
QUINTON*       FAIR      66  61  84 CALM      30.14S
CHARLOTTSVILLE FAIR      70  64  81 S9        30.11S
GORDONSVILLE*  FAIR      65  64  96 CALM      30.12R
ORANGE*        FAIR      68  64  88 CALM      30.14R
LOUISA*        FAIR      70  64  83 S3        30.12S
BUMPASS*       FAIR      65  61  86 CALM      30.14R
FARMVILLE*     FAIR      66  61  84 SW5       30.13R
CREWE*         FAIR      62  62 100 CALM      30.15R
FORT PICKETT*  NOT AVBL
CHASE CITY*    FAIR      61  60  95 CALM      30.15S
CLARKSVILLE*   FAIR      59  59 100 CALM      30.15S
SOUTH HILL*    FAIR      58  58  97 CALM      30.21S
LAWRENCEVILLE* FAIR      61  59  94 CALM      30.15S
EMPORIA*         N/A     54  54 100 CALM      30.17S
$$

VAZ088>098-281000-
SOUTHEAST VIRGINIA

CITY           SKY/WX    TMP DP  RH WIND       PRES   REMARKS
NORFOLK        FAIR      65  61  87 S3        30.15S
VIRGINIA BEACH FAIR      62  57  83 CALM      30.15S
NORFOLK NAVAL  FAIR      67  62  84 S3        30.17S
WEST POINT*    FAIR      67  60  77 S3        30.16S
SALUDA*        FAIR      67  63  86 CALM      30.14S
NEWPORT NEWS   FAIR      65  61  87 SW5       30.16R
LANGLEY AFB    FAIR      67  62  85 S7        30.15S
FORT EUSTIS    FAIR      68  61  78 S3        30.14R
WILLIAMSBURG*  FAIR      70  63  78 S5        30.16S
HR EXEC AP*      N/A     55  52  88 CALM      30.18S
FRANKLIN*      FAIR      59  57  95 CALM      30.16S
US460-WAKEFLD  FAIR      62  60  93 CALM      30.15S
$$

VAZ020-022-025-037-045-281000-
WEST CENTRAL AND SOUTHWEST VIRGINIA

CITY           SKY/WX    TMP DP  RH WIND       PRES   REMARKS
STAUNTON*      FAIR      62  62 100 CALM      30.16R FOG
WAYNESBORO*    FAIR      63  62  96 CALM      30.15R
HOT SPRINGS VA FAIR      64  62  96 SW10      30.24S
LYNCHBURG      FAIR      64  60  87 S5        30.16R
DANVILLE       FAIR      60  58  92 CALM      30.15S
SOUTH BOSTON*  FAIR      61  59  94 CALM      30.15S
MARTINSVILLE     N/A     56  56 100 CALM      30.18S FOG
ROANOKE        FAIR      64  63  96 CALM      30.16S
BLACKSBURG     FAIR      61  61  98 CALM      30.22S
DUBLIN*        FAIR      60  60 100 CALM      30.20R FOG
MARION*        FOG       57  56  96 CALM      30.23R VSB<1/4
HILLSVILLE*    FAIR      62  62  98 S3        30.21R
RICHLANDS*     FAIR      64  64 100 S3        30.20R
WISE*          FAIR      64  55  72 S3        30.19S
ABINGDON*      FAIR      62  61  97 CALM      30.18R FOG
$$

MDZ021>025-VAZ099-100-281000-
SOUTHERN MARYLAND AND THE DELMARVA PENINSULA

CITY           SKY/WX    TMP DP  RH WIND       PRES   REMARKS
PATUXENT RIVER CLEAR     69  58  67 S5        30.13R
BAY BRIDGE APT CLEAR     72  61  68 S8        30.12R
LEONARDTOWN    CLEAR     68  59  73 SW6       30.14S
DOVER          CLEAR     70  66  89 S13       30.11R
GEORGETOWN     CLEAR     67  62  84 S10       30.14R
EASTON         CLEAR     71  66  84 S5        30.17R
CAMBRIDGE      CLEAR     68  63  83 S6        30.13R
SALISBURY      CLEAR     64  62  93 S5        30.14S
OCEAN CITY     CLEAR     69  63  81 SW12      30.15R
WALLOPS ISLAND FAIR      65  62  90 S6        30.16R
ACCOMACK*      FAIR      66  61  82 S6        30.16S
$$

NCZ012>017-030>032-281000-
NORTH CENTRAL AND EASTERN NORTH CAROLINA

CITY           SKY/WX    TMP DP  RH WIND       PRES   REMARKS
ROANOKE RAPIDS   N/A     55  55 100 CALM      30.16R FOG
RALEIGH        PTCLDY    62  59  90 CALM      30.16R
ELIZABETH CITY CLEAR     62  61  96 CALM      30.16R
AHOSKIE*       CLEAR     58  57  97 CALM      30.16S
EDENTON*       CLEAR    N/A N/A N/A CALM      30.16S
CURRITUCK*     CLEAR     62  62  99 CALM      30.17R
KILL DEVIL HLS FOG       63  62  94 CALM      30.15R VSB 1
MANTEO         NOT AVBL
CAPE HATTERAS  CLEAR     73  68  84 SE6       30.14R
TARBORO*       FOG       55  55  99 CALM      30.16S VSB 1/4
GOLDSBORO      CLEAR     58  58 100 CALM      30.13S
WASHINGTON     CLEAR     59  58  95 CALM      30.15S
GREENVILLE     CLEAR     57  57 100 CALM      30.16S FOG
NEW BERN       CLEAR     63  60  90 CALM      30.14S
WILMINGTON     PTCLDY    64  63  96 NE5       30.11S
$$

VAZ048-281000-
ELSEWHERE

CITY           SKY/WX    TMP DP  RH WIND       PRES   REMARKS
HARRISBURG PA  CLEAR     68  64  87 SE6       30.09R
BALTIMORE      PTCLDY    67  64  90 CALM      30.10R
ANNAPOLIS      CLEAR     68  63  84 SE5       30.11R
ANDREWS AFB    FAIR      69  61  75 S7        30.11R
PHILADELPHIA   PTCLDY    69  59  70 S7        30.12R
HENDERSON NC   CLEAR     60  56  88 S5        30.16R
GREENSBORO     PTCLDY    65  61  87 S3        30.14S
ROCKY MOUNT    CLEAR     56  56 100 CALM      30.15S FOG
$$

VAZ100-281000-
MARINE

STATION/POSITION TIME  TEMP    WIND        PRES    WAVE   SWELL
                       AIR SEA DIR/SP/G            HT/PER HT/PER
                 (UTC) (F)     (DEG/KT/KT) (MB)    (FT/S) (FT/S)
BRANDYWINE LGT   0800   67     210/ 14/ 15 1019.8S
CAPE MAY NJ      0800   68 67  190/  7/ 10 1019.8R
LEWES DE         0800   70 62  220/  8/ 15 1019.8S
15NM E FENWICK I 0850   64 60              1021.0R   2/ 4
OCEAN-CITY-INLET 0800   61 58  210/  9/ 10 1021.0R
WACHAPREAGUE VA  0800   69 72  220/  5/  7 1020.6R
THOMAS POINT MD  0900   69 66  160/ 11/ 12 1021.0R
GOOSES REEF MD   0900   69 67  180/ 10/ 12 1020.8R   1/ 2
COVE POINT MD    0800   68     180/  9/ 10 1020.5R
SOLOMONS ISLAND  0800   71 67  190/  3/  6   N/A
BISHOPS HEAD MD  0800   71 74  190/ 12/ 14 1020.3R
PINEY POINT MD   0800          210/  5/  7   N/A
POTOMAC MD       0900   69 67  220/  8/ 10 1019.6R   1/ 2
CAMBRIDGE MD     0800   70 65  180/  5/  8 1019.0R
LEWISETTA VA     0800   70 66  230/  9/ 10 1019.8R
RAPPAHANNOCK LGT 0800          190/ 11/ 13 1021.4R
STINGRAY PT      0900   69 67  200/  6/  8 1021.3R   1
YORK RVR RNG VA  0800   70     210/  8/  9 1020.3R
YORKTOWN VA      0800   69 68  200/  3/  5 1020.6R
JAMESTOWN VA     0900   68 73  160/  4/  6   N/A     0
DOMINION TERM VA 0800   68     200/  6/  6 1021.0R
KIPTOPEKE VA     0800      69  180/  4/  5   N/A
CHES BAY BRIDGE  0800   69 62  180/  5/  8 1021.0R
CAPE HENRY VA    0800   67     190/  6/  7   N/A
CHESAPEAKE LGHT  0800   67     190/ 13/ 14 1021.6S
WILLOUBY STN VA  0800   70     200/  9/ 10 1021.9R
CAPE HENRY BUOY  0812      66                N/A     2/ 7
1ST LANDING BUOY 0900   66 66  160/  4/  4 1021.3R   1
CAPE CHARLES BUO 0826      65                N/A     2/ 8   2/ 8
OFFSHORE WE BUOY 0821      68                N/A     2/ 7   2/ 7
64NM E OF VA BCH 0850   65 61   50/  4/  4 1021.3R   3/ 8   3/ 8
DUCK PIER NC     0800   65 59  160/  6/  6 1020.3F
44100 DUCK FRF   0824      66                N/A     2/ 7
44056 DUCK FRF   0811      63                N/A     2/ 8
OREGON INLET NC  0800   67 78   80/  4/  4 1020.6F
HATTERAS NC      0800   74 74  120/  6/  7 1019.9F
DIAMOND SHLS NC  0850   76 78  120/ 12/ 14 1020.2R   4/ 8   3/ 8
CAPE LOOKOUC1F1C2F2C3F3C4F4C5F5C6F6C7F7C8M1C9!



USA.gov is the U.S. government's official web portal to all federal, state and local government web resources and services.